Regional Weather Roundup
Issued by NWS Sterling, VA

Home | Current Version | Previous Version | Graphics & Text | Print | Product List | Glossary On
Versions: 1 2 3 4 5 6 7 8 9 10 11 12 13 14 15 16 17 18 19 20 21 22 23 24 25 26 27 28 29 30 31 32 33 34 35 36 37 38 39 40 41 42 43 44 45 46 47 48 49 50
520
ASUS41 KLWX 230710
RWRLWX

REGIONAL WEATHER ROUNDUP
NATIONAL WEATHER SERVICE BALTIMORE MD/WASHINGTON DC
200 AM EST THU FEB 23 2017

Note: "FAIR" indicates few or no clouds below 12,000 feet
with no significant weather and/or obstructions to visibility.
 TC=TEMPERATURE CELSIUS

 * =Non NWS site. Station does not report precipitation (e.g. rain,
    snow, etc.), thunder, or fog.

DCZ001-MDZ009-015-VAZ040>042-051-053>054-230800-
WASHINGTON METRO

CITY           SKY/WX    TMP DP  RH WIND       PRES   REMARKS
WASHINGTON NAT CLOUDY    55  53  93 S7        29.90S
DULLES         CLOUDY    55  52  89 S6        29.88F
ANDREWS AFB    CLOUDY    54  53  95 SW6       29.88F
FT BELVOIR     CLOUDY    53  50  90 CALM      29.89F
QUANTICO       CLOUDY    52  52 100 SW5       29.91S
LEESBURG*      CLOUDY    52  52 100 MISG      29.89F
MANASSAS*      CLOUDY    54  52  93 CALM      29.90S
GAITHERSBURG*  CLOUDY    54  48  82 S3        29.92F

$$

MDZ006>007-011-014-230800-
BALTIMORE METRO

CITY           SKY/WX    TMP DP  RH WIND       PRES   REMARKS
BWI AIRPORT    CLOUDY    47  46  97 CALM      29.89S
MD SCIENCE CTR   N/A     50  45  83 MISG      29.90S
MARTIN STATE   FOG       46  46 100 CALM      29.92R VSB 1/2
ANNAPOLIS      FOG       48  48 100 CALM      29.89S VSB 1/2
FORT MEADE*    CLOUDY    46  43  87 CALM      29.92S

$$

MDZ012-015-019>023-230800-
MARYLAND EASTERN SHORE

CITY           SKY/WX    TMP DP  RH WIND       PRES   REMARKS
OCEAN CITY     CLOUDY    54  49  83 SW6       29.92F
SALISBURY      CLOUDY    56  54  93 S5        29.91F
BAY BRIDGE AP* CLOUDY    50  50 100 S3        29.90S FOG
CAMBRIDGE*     CLOUDY    54  52  94 SE5       29.91F
EASTON*        LGT RAIN  54  52  93 S5        29.94S

$$

MDZ017>025-230800-
SOUTHERN MARYLAND

CITY           SKY/WX    TMP DP  RH WIND       PRES   REMARKS
PATUXENT RIVER CLOUDY    55  53  93 CALM      29.90F
ST INIGOES     CLOUDY    55  52  89 S5        29.90F
LEONARDTOWN*   CLOUDY    55  52  88 S3        29.92S

$$

MDZ003>005-230800-
NORTH CENTRAL MARYLAND

CITY           SKY/WX    TMP DP  RH WIND       PRES   REMARKS
FREDERICK*     NOT AVBL
HAGERSTOWN APT CLOUDY    53  47  79 SE3       29.86F
WESTMINSTER*   CLOUDY    48  46  93 CALM      29.88S

$$

MDZ501>502-230800-
WESTERN MARYLAND

CITY           SKY/WX    TMP DP  RH WIND       PRES   REMARKS
OAKLAND*       CLOUDY    50  50 100 W7        29.88F FOG
CUMBERLAND*    CLOUDY    55  46  71 CALM      29.89F

$$

VAZ025>031-230800-
SHENANDOAH VALLEY

CITY           SKY/WX    TMP DP  RH WIND       PRES   REMARKS
WINCHESTER*    CLOUDY    55  48  76 SW7       29.86F
FRONT ROYAL*   CLOUDY    55  50  82 S5        29.86F
LURAY*         CLOUDY    55  52  88 SW3       29.88F
NEW MARKET*    CLOUDY    52  49  87 W5        29.88F
STAUNTON*      CLOUDY    53  50  90 S6        29.92F
WAYNESBORO*    CLOUDY    50  49  95 CALM      29.91S

$$

WVZ021-048>050-054>055-230800-
EASTERN WEST VIRGINIA PANHANDLE

CITY           SKY/WX    TMP DP  RH WIND       PRES   REMARKS
MARTINSBURG    CLOUDY    51  45  79 CALM      29.85F
PETERSBURG*    CLOUDY    60  52  75 CALM      29.87F

$$

VAZ036>039-050-230800-
CENTRAL FOOTHILLS

CITY           SKY/WX    TMP DP  RH WIND       PRES   REMARKS
CHARLOTTESVILL CLOUDY    55  53  93 S8        29.90S
CULPEPER*      CLOUDY    56  54  92 S6        29.90S
ORANGE*        CLOUDY    54  52  94 CALM      29.91F
GORDONSVILLE*  CLOUDY    55  54  97 SW6       29.91S
WARRENTON*     CLOUDY    56  51  82 S5        29.89S

$$

VAZ055>057-230800-
NORTH AND CENTRAL PIEDMONT

CITY           SKY/WX    TMP DP  RH WIND       PRES   REMARKS
FREDERICKSBRG* CLOUDY    58  56  93 SW9       29.89F
STAFFORD*      CLOUDY    55  54  97 CALM      29.94S

$$

NCZ024-NYZ072-PAZ021-071-VAZ022-071-230800-
OTHER REGIONAL OBSERVATIONS

CITY           SKY/WX    TMP DP  RH WIND       PRES   REMARKS
NEW YORK CITY  CLEAR     50  42  74 CALM      29.91R
PHILADELPHIA   CLOUDY    47  45  93 W6        29.91R FOG
PITTSBURGH     CLOUDY    56  52  86 S9        29.83F
ROANOKE        FOG       51  51 100 CALM      29.94F VSB 1/4
RICHMOND       CLOUDY    52  52 100 CALM      29.91F FOG
RALEIGH        CLOUDY    55  51  86 CALM      29.93S

$$

ANZ530>537-230800-
MARINE OBSERVATIONS

STATION/POSITION TIME  TEMP    WIND        PRES
                       AIR SEA DIR/SP/G
                 (UTC) (F)     (DEG/KT/KT) (MB)
THOMAS PT LIGHT  0700   46 42  190/  9/ 10   N/A
BALT KEY BRIDGE  0642   46     140/  2/  3 1012.4R
COVE POINT       0642   47     190/  9/  9 1013.2F
LEWISETTA        0642   55 44  190/  3/  3 1012.5F
SOLOMONS ISLAND  0642   50 44  120/  5/  5   N/A
PINEY POINT      0648          170/  3/  4   N/A

$$





USA.gov is the U.S. government's official web portal to all federal, state and local government web resources and services.